Location: Chippewa Lake
(41.0698°N, 81.9010°W)
Time: 02:02:37
(UTC+00:00)

Okean 2 Rocket - Pass Details

Date: 09 May 2021
Orbit: 617 x 641 km, 82.5° (Epoch: 24 June)

Event Time Altitude Azimuth Distance (km) Brightness Sun altitude
Rises 06:24:54 0° 352° (N) 2,901 7.4 -29.8°
Reaches altitude 10° 06:27:08 10° 352° (N) 1,989 6.4 -29.7°
Enters shadow 06:29:53 38° 352° (N) 948 4.3 -29.5°
